Weather History for New York, NY

Change the Weather History Date:

Wednesday, February 20, 2013

  Actual Average Record
Temperature  
Mean Temperature 34 °F 36 °F  
Max Temperature 40 °F 43 °F 63 °F (1943)
Min Temperature 27 °F 29 °F 7 °F (1950)
Degree Days  
Heating Degree Days 31 29  
Month to date heating degree days 635 607  
Since 1 July heating degree days 2984 3206  
Cooling Degree Days 0 0  
Month to date cooling degree days 0 0  
Year to date cooling degree days 0 0  
Moisture  
Dew Point 12 °F    
Average Humidity 43    
Maximum Humidity 52    
Minimum Humidity 33    
Precipitation  
Precipitation 0.00 in 0.09 in 1.50 in (1981)
Month to date precipitation 1.67 1.91  
Year to date precipitation 4.31 5.08  
Snow  
Snow 0.00 in 0.40 in 2.40 in (1977)
Month to date snowfall 13.1 6.7  
Since 1 July snowfall 16.1 19.6  
Snow Depth 0.00 in    
Sea Level Pressure  
Sea Level Pressure 29.85 in    
Wind  
Wind Speed 20 mph (WNW)    
Max Wind Speed 31 mph    
Max Gust Speed 40 mph    
Visibility 10 miles    
Events      
T = Trace of Precipitation, MM = Missing Value Source: NWS Daily Summary

Daily Weather History Graph

Daily Weather History Graph

Search for Another Location

Airport:

Trip Planner

Search our weather history database for the weather conditions in past years. The results will help you decide how hot, cold, wet, or windy it might be!

Date:

Astronomy

Feb. 20, 2013 Rise Set
Actual Time 6:42 AM EST 5:36 PM EST
Civil Twilight 6:14 AM EST 6:04 PM EST
Nautical Twilight 5:42 AM EST 6:36 PM EST
Astronomical Twilight 5:11 AM EST 7:08 PM EST
Moon 12:54 PM EST (2/20) 3:01 AM EST (2/20)
Length of Visible Light 11h 49m
Length of Day
10h 54m
Waxing Gibbous, 76% of the Moon is Illuminated
Feb 20
Waxing Gibbous
Feb 25
Full
Mar 4
Last Quarter
Mar 11
New
Mar 19
First Quarter

Hourly Weather History & Observations

Time (EST) Temp. Windchill Dew Point Humidity Pressure Visibility Wind Dir Wind Speed Gust Speed Precip Events Conditions
12:51 AM 39.0 °F 28.8 °F 19.9 °F 46% 29.72 in 10.0 mi West 21.9 mph 28.8 mph N/A   Clear
1:51 AM 37.0 °F 27.4 °F 19.0 °F 48% 29.73 in 10.0 mi West 17.3 mph 29.9 mph N/A   Clear
2:51 AM 36.0 °F 25.3 °F 19.0 °F 50% 29.74 in 10.0 mi WNW 19.6 mph 26.5 mph N/A   Partly Cloudy
3:51 AM 35.1 °F 23.8 °F 17.1 °F 48% 29.75 in 10.0 mi West 20.7 mph 32.2 mph N/A   Partly Cloudy
4:51 AM 33.1 °F 21.5 °F 15.1 °F 48% 29.77 in 10.0 mi WNW 19.6 mph 28.8 mph N/A   Partly Cloudy
5:51 AM 32.0 °F 20.5 °F 14.0 °F 48% 29.79 in 10.0 mi West 18.4 mph 32.2 mph N/A   Partly Cloudy
6:51 AM 32.0 °F 20.5 °F 15.1 °F 50% 29.81 in 10.0 mi WNW 18.4 mph 25.3 mph N/A   Partly Cloudy
7:51 AM 32.0 °F 20.8 °F 15.1 °F 50% 29.83 in 10.0 mi West 17.3 mph 25.3 mph N/A   Mostly Cloudy
8:51 AM 30.9 °F 19.1 °F 10.0 °F 42% 29.85 in 10.0 mi WNW 18.4 mph 28.8 mph N/A   Mostly Cloudy
9:51 AM 30.9 °F 18.1 °F 9.0 °F 40% 29.86 in 10.0 mi WNW 21.9 mph 29.9 mph N/A   Scattered Clouds
10:51 AM 32.0 °F 18.9 °F 8.1 °F 37% 29.85 in 10.0 mi West 24.2 mph 27.6 mph N/A   Mostly Cloudy
11:51 AM 30.9 °F 19.4 °F 10.9 °F 43% 29.84 in 10.0 mi West 17.3 mph 28.8 mph N/A   Mostly Cloudy
12:51 PM 30.9 °F 18.7 °F 8.1 °F 38% 29.84 in 10.0 mi West 19.6 mph 31.1 mph N/A   Overcast
1:51 PM 32.0 °F 20.5 °F 7.0 °F 35% 29.84 in 10.0 mi West 18.4 mph 31.1 mph N/A   Mostly Cloudy
2:51 PM 32.0 °F 19.8 °F 8.1 °F 37% 29.85 in 10.0 mi West 20.7 mph 28.8 mph N/A   Mostly Cloudy
3:51 PM 30.9 °F 16.7 °F 8.1 °F 38% 29.87 in 10.0 mi West 27.6 mph 32.2 mph N/A   Mostly Cloudy
4:51 PM 30.9 °F 18.7 °F 9.0 °F 40% 29.88 in 10.0 mi WNW 19.6 mph 29.9 mph N/A   Mostly Cloudy
5:51 PM 30.2 °F 17.8 °F 8.6 °F 40% 29.88 in 10.0 mi WNW 19.6 mph 29.9 mph N/A   Mostly Cloudy
6:51 PM 30.9 °F 17.2 °F 10.0 °F 42% 29.93 in 10.0 mi WNW 25.3 mph 36.8 mph N/A   Mostly Cloudy
7:51 PM 28.9 °F 14.5 °F 12.0 °F 49% 29.94 in 10.0 mi NW 25.3 mph 32.2 mph N/A   Mostly Cloudy
8:51 PM 28.0 °F 13.9 °F 10.9 °F 49% 29.95 in 10.0 mi NW 23.0 mph 34.5 mph N/A   Partly Cloudy
9:51 PM 28.4 °F 16.2 °F 10.4 °F 47% 29.96 in 10.0 mi WNW 17.3 mph 27.6 mph N/A   Clear
10:51 PM 27.0 °F 13.9 °F 8.1 °F 45% 29.98 in 10.0 mi WNW 18.4 mph 28.8 mph N/A   Partly Cloudy
11:51 PM 27.0 °F 14.7 °F 10.9 °F 51% 29.99 in 10.0 mi NW 16.1 mph 27.6 mph N/A   Scattered Clouds